COSMOS 2251 DEB, 36369

Orbit data source: Space-Track

COSMOS 2251 DEB, 36369 is space debris in LEO originally from a launch on Wed, 16 Jun 1993 UTC launched from the Plesetsk Missile And Space Complex (PKMTR). The debris from Iridium 33, an American commercial communications satellite, has been tracked extensively since its accidental collision with the defunct Russian satellite Cosmos 2251 in 2009. This event, occurring at high speed in low Earth orbit (LEO), generated thousands of pieces of space debris, significantly increasing the risk of further collisions. The Iridium 33 debris cloud has impacted space traffic management and orbital debris mitigation strategies, making it a subject of ongoing study in space situational awareness.

Loading next visibility...
Identifier
36369, 1993-036AYW
Orbit
LEO
Country
Flag of CISCIS
Related business
Manufacturer
Unknown
Mission
Spacecraft
Bus & Motor
Unknown
Mass
Unknown
Launch date (UTC)
1993-06-16 (33 years ago)
Launch vehicle
Unknown
Launch site
Plesetsk Missile And Space Complex (PKMTR)
Object type
Payload
Rocket body
Debris
Shape & HBR
Unknown shape, 0.1 m
Radar Cross Section
Small (<0.1 m²)

Expand to show TLE details & history
Last TLE update: 3 days ago

TLE from 3 days ago
0 COSMOS 2251 DEB
1 36369U 93036AYW 26118.39164007  .00007604  00000-0  10879-2 0  9990
2 36369  74.0303 163.4886 0013100 221.2912 138.7273 14.76720802879378
Epoch: 2026-04-28T09:23Z
TLE epoch observation values (Epoch: 2026-04-28T09:23:57.702Z)
Latitude
Longitude
166.13056°
Altitude
649.27 km
Speed
7.53 km/s
True Right ascension
10h 53m 57s
True Declination
0° 00' 00"
Sunlit
Object was in full shadow at epoch
Visualization orbit readout
Latitude
Unknown
Longitude
Unknown
Altitude
Unknown
Speed
Unknown
Apparent Right ascension
Unknown
Apparent Declination
Unknown
Sunlit
N/A
Visualization observer readout
Local Sidereal Time
18:33:40
Azimuth
Unknown
Elevation
Unknown
Doppler factor
Unknown
Orbital elements
Apogee altitude
646.464 km
Perigee altitude
628.084 km
Semi-major axis
7,015.411 km
Eccentricity
0.00131
Inclination
74.0303°
RAAN
163.4886°
Arg. of periapsis
221.2912°
True anomaly
138.8262°
Mean anomaly
138.7273°
Eccentric anomaly
138.77676°
Mean motion
3.69372 °/min
Orbital period
97.46 mins
BSTAR
0.0010879
Loading maneuver chart data...
Computing Atmospheric mass density...

Documentation

Showing up to 5 results
|